sat.trackr.live / text

‹ back to catalog

STARLINK-11505 [DTC]

NORAD 62469 · 2024-254H

PAYLOAD ACTIVE UNKNOWN

§ Identity

Operator
Country
US
Launch date
2024-12-31
Launch site
AFETR
Launch vehicle
Mass (kg)
RCS (m²)

Purposes: comms

External: N2YO · Heavens-Above · Gunter

§ Orbital elements

Epoch: 2026-09-21T00:33:15.816672Z

Period
91.67 min
Inclination
43.0001°
Eccentricity
0.0001982
Mean motion
15.70854890 rev/d
Perigee alt
355.1 km
Apogee alt
357.8 km
Semi-major
6,734.6 km
B*
9.4231e-4
RAAN
125.4387°
Arg perigee
261.9524°
Mean anomaly
98.1119°
Rev number
10,011

§ Raw data

STARLINK-11505 [DTC]1 62469U 24254H   26264.02309973  .00122337  00000+0  94231-3 0  99962 62469  43.0001 125.4387 0001982 261.9524  98.1119 15.70854890100115

JSON: /api/v1/satellites/62469 · /tle

For live sub-satellite position, see the globe view (requires WebGL).

§ Visibility from observer

Set your observer location to see the next 7 days of passes ≥ 10°. The values pass through the URL so the page stays shareable.

No JS? Fill the form by hand. The geolocation button needs JavaScript.